Location: Fauquembergues
(50.6005°N, 2.0987°E)
Time: 07:18:45
(UTC+00:00)

BREEZE-M DEB (TANK) - Pass Details

Date: 14 July 2020
Orbit: 330 x 16284 km, 49.4° (Epoch: 14 August)

Event Time Altitude Azimuth Distance (km) Brightness Sun altitude
Rises 00:55:16 0° 270° (W) 2,910 5.9 -16.7°
Reaches altitude 10° 00:56:39 10° 269° (W) 2,320 5.3 -16.6°
Maximum altitude 01:01:33 84° 182° (S) 1,479 4.3 -16.4°
Drops below altitude 10° 01:24:15 10° 99° (E) 9,415 8.7 -15.3°
Sets 01:39:19 0° 102° (ESE) 13,551 9.5 -14.4°
